Location: Brede
(50.9167°N, 0.6000°E)
Time: 20:08:50
(UTC+00:00)

Altair - Pass Details

Date: 02 August 2021
Orbit: 1501 x 1682 km, 47.2° (Epoch: 22 September)

Event Time Altitude Azimuth Distance (km) Brightness Sun altitude
Exits shadow 23:14:00 16° 123° (ESE) 3,253 8.8 -20.7°
Drops below altitude 10° 23:18:30 10° 94° (E) 3,700 9.3 -20.9°
Sets 23:22:59 0° 75° (ENE) 4,663 10.1 -21.0°
